Wind_Speed
16 15 15 16 17 18 19 21 23 26 27 27 26 25 25 25 24 25 25 26 26 27 26 25 25 25 26 27 27 28 29 30 31 33 33 34 36 37 37 38 38 38 38 38
13 13 13 14 15 16 17 20 22 24 25 25 25 23 22 20 20 21 22 23 23 23 23 23 24 24 25 25 25 25 24 25 26 27 29 31 33 35 37 38 38 38 38 38
10 10 10 11 13 15 17 20 22 23 23 23 22 20 17 17 17 18 19 20 21 21 21 21 21 21 22 22 21 21 21 22 23 25 26 28 30 32 34 36 37 38 38 38
7 7 8 9 11 14 16 19 20 21 21 21 20 17 16 17 18 19 19 19 19 19 19 19 19 18 18 18 18 18 18 19 20 22 23 25 27 28 30 32 34 36 36 37
5 6 7 9 11 13 15 16 17 18 18 17 16 15 15 17 19 20 19 19 19 20 19 18 18 17 17 17 17 16 16 16 17 18 19 20 21 22 24 27 29 32 33 35
4 4 6 8 9 11 13 15 16 16 15 13 13 14 15 18 19 19 19 19 20 19 19 18 19 18 18 18 18 17 17 17 16 16 15 15 16 17 19 21 23 25 28 30
3 2 4 6 8 10 12 13 14 14 13 12 12 13 15 16 17 18 18 18 19 19 19 19 19 19 19 20 19 19 18 18 17 16 14 13 13 14 14 15 17 18 21 24
3 2 3 5 7 10 12 13 14 13 13 12 12 12 14 14 15 16 17 18 18 19 19 19 19 19 19 20 20 20 20 19 18 17 15 14 14 14 13 12 12 13 15 16
6 3 2 5 7 10 12 13 13 13 13 12 11 11 13 13 14 15 16 18 18 19 19 19 19 19 20 20 20 20 21 21 20 18 16 16 15 15 14 12 10 9 9 11
6 5 5 6 8 11 12 13 14 14 13 12 12 12 13 13 14 15 17 18 18 19 19 20 19 20 20 20 20 20 21 21 20 20 18 18 17 16 15 13 12 10 8 7
6 5 5 6 8 9 11 12 13 13 13 13 12 13 13 13 15 16 17 18 18 19 19 19 19 20 20 21 21 21 21 21 21 21 20 19 18 18 16 15 13 11 9 8
6 5 5 6 7 9 11 12 13 13 13 13 12 12 13 14 15 16 17 18 19 19 19 19 20 20 21 21 21 22 22 22 22 22 21 20 19 19 18 16 15 13 12 10
7 6 5 6 8 10 11 12 12 12 13 12 12 12 13 14 15 16 16 17 18 18 18 19 19 20 21 22 22 22 22 22 22 22 22 22 21 20 19 18 16 15 13 12
6 6 6 7 8 9 10 10 12 12 11 11 11 11 12 13 14 14 15 16 17 18 18 19 19 20 21 22 22 23 23 23 23 23 23 22 22 21 20 19 17 16 15 14
5 5 5 6 7 8 9 9 10 11 11 11 10 10 11 12 12 13 15 16 16 17 18 19 20 20 21 22 22 23 23 23 24 23 23 22 22 21 20 19 18 17 16 15
4 4 4 5 6 7 8 9 9 10 11 11 11 11 11 11 12 13 14 15 16 17 18 18 19 20 21 22 23 23 24 24 24 24 23 23 22 21 21 20 19 19 18 17
3 2 3 4 5 6 7 8 9 9 10 11 11 12 12 12 12 13 14 14 15 16 17 18 18 20 20 21 22 23 25 25 25 25 25 24 23 23 22 21 20 20 20 19
1 0 1 2 3 5 6 7 8 9 10 11 11 11 12 13 13 13 14 13 14 15 17 17 17 18 19 20 21 23 24 25 26 26 26 26 25 24 23 22 21 21 21 20
3 3 3 3 3 4 5 7 8 9 10 10 11 12 12 13 13 13 14 14 14 14 15 16 16 17 18 19 20 21 23 24 25 27 28 28 27 26 25 24 23 22 22 22
6 5 5 4 5 5 6 6 7 8 9 10 11 11 12 13 13 13 14 14 14 14 14 14 15 16 17 18 19 20 21 22 24 26 27 28 28 27 26 26 24 24 24 24
9 8 7 7 7 7 7 7 8 8 9 10 11 11 12 12 13 13 13 14 14 13 13 13 14 15 16 17 18 19 20 21 23 24 26 27 28 28 28 27 26 25 25 25
11 11 10 10 10 10 10 10 9 10 10 10 11 11 11 12 13 13 13 13 13 13 13 13 14 14 15 15 16 17 18 20 21 23 24 26 27 27 28 28 27 26 25 26
14 14 13 13 13 12 12 12 12 12 12 12 12 12 12 12 13 13 14 14 14 14 14 14 14 14 14 15 15 16 17 18 19 21 22 24 25 26 27 27 27 26 26 26
16 17 17 17 16 14 14 15 16 16 15 15 15 15 15 14 14 15 15 15 15 15 15 14 14 15 15 15 15 15 16 17 18 19 20 21 22 24 25 26 26 26 25 26
20 19 18 19 19 17 17 17 18 18 18 18 18 18 17 17 16 16 17 17 16 16 16 16 15 15 15 16 16 15 15 16 16 17 18 19 20 21 22 23 24 25 25 25
23 21 20 19 20 20 20 20 20 20 21 21 21 21 21 20 20 19 19 19 18 18 18 17 17 16 16 16 16 16 15 15 16 16 16 17 18 18 19 20 22 23 23 23
Wind_Direction
260 274 284 291 299 306 311 313 312 312 313 314 315 317 318 319 317 314 313 314 313 312 309 305 301 298 294 291 288 285 281 277 274 272 271 269 268 267 266 264 263 261 258 256
263 272 282 294 305 311 313 312 311 312 313 314 317 320 322 322 321 319 319 319 317 316 316 313 309 306 304 299 295 291 286 282 278 276 274 272 270 268 266 265 263 262 259 257
260 269 283 298 306 312 314 313 315 316 317 319 322 328 332 334 335 334 332 330 329 328 326 323 320 318 314 310 306 301 295 290 286 283 280 277 274 272 268 265 263 262 260 258
257 275 295 306 312 315 317 319 321 323 324 324 327 334 340 345 350 352 349 346 345 345 344 342 340 336 333 329 323 315 309 302 297 292 287 283 280 276 271 268 265 263 261 257
252 284 299 308 316 320 325 328 330 331 330 327 333 342 354 359 2 2 1 0 359 358 358 357 355 352 349 346 342 337 331 324 316 308 301 295 289 283 276 272 267 263 260 257
248 272 293 313 325 332 337 340 341 339 338 340 350 359 7 7 6 8 7 4 4 4 4 4 5 5 3 0 358 355 349 343 337 328 320 314 305 297 288 279 272 267 261 256
215 269 312 331 339 345 349 350 349 350 355 4 11 15 14 11 10 10 8 9 11 11 10 9 9 10 10 9 7 4 360 357 353 348 341 333 325 316 305 292 281 273 266 259
170 248 329 344 353 359 2 1 3 4 10 19 22 23 20 17 16 16 15 15 15 13 13 11 11 11 10 10 11 11 10 7 3 0 357 352 346 341 332 317 299 285 275 264
150 142 41 15 12 13 11 12 13 16 22 29 29 30 29 27 24 23 21 19 18 17 15 14 13 12 11 11 13 14 14 13 12 9 7 4 360 357 355 349 336 316 295 279
125 96 55 29 23 23 21 20 22 26 28 32 36 37 36 35 32 28 23 19 18 17 16 14 14 14 15 16 16 15 15 15 15 14 13 10 8 7 6 2 356 345 333 313
114 90 61 36 29 29 30 30 31 35 37 40 43 43 40 36 31 27 23 20 18 16 15 15 15 15 16 17 17 16 16 15 14 14 14 13 12 11 8 5 3 2 355 339
115 94 69 46 42 43 44 41 40 41 44 45 44 42 36 33 29 26 23 22 20 18 18 17 17 19 19 18 18 17 17 16 16 17 17 14 12 11 11 10 10 5 1 354
118 101 80 59 50 47 46 46 46 47 47 45 42 38 34 32 30 26 24 23 23 21 18 17 19 20 20 19 18 17 17 18 18 19 19 17 16 15 14 13 12 10 6 359
115 99 77 56 47 46 45 46 47 48 47 44 39 34 31 30 27 25 23 23 22 21 19 19 20 21 21 21 20 20 19 19 18 18 17 17 16 15 14 13 13 10 7 2
110 94 73 52 42 42 43 45 44 43 42 41 36 30 26 25 23 22 22 22 21 20 20 21 22 22 21 20 21 20 20 19 18 17 17 16 15 15 15 14 13 9 5 2
109 87 68 46 30 28 31 35 36 35 35 35 31 27 23 21 18 18 19 20 20 19 20 22 23 23 23 22 22 22 21 19 18 17 17 16 16 15 14 14 12 9 6 2
116 81 54 31 13 13 15 21 25 28 28 26 23 21 18 15 12 12 15 15 16 17 19 21 22 23 24 23 22 23 23 21 19 19 18 18 18 16 15 13 11 9 7 3
170 354 353 353 352 351 4 8 14 20 20 18 15 10 9 10 11 10 10 9 10 12 15 19 20 22 23 22 22 22 22 21 20 20 20 19 18 18 17 14 12 10 8 6
263 276 294 306 317 330 347 355 1 6 9 9 10 7 4 5 7 9 7 7 7 9 12 16 18 19 19 19 20 20 19 19 19 21 21 21 20 19 17 16 14 12 11 9
266 274 283 290 296 304 324 332 340 348 354 357 360 1 360 359 2 3 4 4 5 4 6 10 14 15 15 15 16 16 16 16 17 18 19 20 20 20 19 17 16 15 13 12
269 273 277 282 286 292 300 308 317 325 335 339 343 346 348 350 352 355 357 359 359 358 360 3 7 10 10 10 11 12 13 13 14 16 18 18 19 19 19 18 18 17 15 14
269 272 275 278 281 285 291 296 303 309 315 319 323 328 333 336 339 343 347 348 350 352 354 356 357 359 1 2 3 5 7 9 10 12 14 16 17 17 18 18 19 19 18 18
263 266 269 271 274 281 287 292 294 297 301 305 308 311 315 320 323 328 332 335 337 340 344 347 349 349 350 352 354 355 357 1 4 6 9 12 13 15 16 18 19 20 21 21
262 264 267 271 275 280 284 287 290 292 294 296 298 301 303 305 307 311 315 320 325 329 332 335 337 339 341 342 344 346 348 350 354 358 2 5 8 11 13 16 18 20 22 24
264 265 269 274 278 280 281 283 287 290 291 291 291 292 294 296 297 300 303 307 311 315 319 323 326 328 330 331 334 336 338 341 344 348 352 357 2 6 10 13 16 19 22 24
268 271 274 277 281 283 285 286 287 288 289 289 289 289 289 289 290 291 293 296 299 302 305 309 312 316 318 321 324 327 330 332 334 337 342 347 353 358 3 8 13 18 21 24
Height
5912 5913 5911 5910 5908 5906 5903 5900 5897 5893 5890 5886 5883 5880 5876 5872 5867 5862 5857 5853 5849 5844 5840 5837 5834 5831 5828 5826 5824 5822 5820 5818 5817 5817 5816 5816 5816 5816 5816 5817 5819 5822 5824 5826
5910 5910 5909 5907 5905 5902 5900 5897 5893 5890 5886 5882 5879 5876 5872 5868 5863 5858 5854 5849 5845 5840 5836 5832 5828 5825 5822 5819 5816 5814 5812 5810 5809 5808 5807 5806 5806 5806 5806 5806 5808 5810 5812 5815
5908 5907 5905 5904 5902 5899 5897 5893 5890 5886 5882 5878 5875 5872 5869 5865 5860 5855 5851 5846 5841 5836 5832 5828 5824 5820 5817 5813 5810 5808 5805 5804 5802 5800 5799 5798 5797 5796 5796 5796 5797 5798 5801 5803
5904 5904 5903 5901 5899 5897 5894 5890 5886 5882 5878 5875 5872 5870 5866 5861 5857 5852 5847 5843 5838 5834 5830 5825 5821 5817 5814 5810 5806 5803 5800 5798 5796 5794 5792 5790 5788 5787 5786 5786 5786 5787 5789 5791
5902 5901 5900 5899 5898 5895 5892 5888 5884 5880 5876 5873 5870 5867 5864 5859 5854 5850 5846 5841 5837 5833 5828 5824 5820 5816 5812 5808 5804 5800 5797 5794 5791 5788 5786 5783 5781 5780 5778 5777 5777 5777 5778 5780
5900 5900 5899 5897 5895 5893 5890 5886 5882 5879 5876 5873 5869 5865 5861 5857 5853 5850 5846 5841 5837 5833 5828 5824 5820 5816 5812 5807 5803 5799 5795 5791 5788 5784 5781 5779 5776 5774 5772 5770 5769 5769 5769 5770
5899 5899 5897 5896 5894 5891 5888 5886 5882 5878 5874 5871 5868 5864 5861 5857 5854 5850 5846 5842 5837 5833 5829 5825 5821 5816 5812 5807 5803 5798 5794 5790 5786 5782 5779 5776 5773 5770 5767 5764 5763 5762 5761 5762
5898 5898 5897 5895 5893 5890 5887 5884 5881 5878 5873 5870 5867 5863 5862 5858 5854 5851 5847 5843 5838 5834 5830 5826 5821 5817 5813 5808 5803 5799 5794 5790 5785 5781 5777 5774 5770 5767 5764 5761 5758 5756 5755 5755
5897 5897 5896 5894 5891 5889 5886 5883 5880 5876 5873 5870 5867 5865 5862 5858 5855 5852 5848 5844 5840 5835 5831 5827 5822 5818 5814 5809 5804 5800 5795 5790 5785 5781 5777 5773 5769 5765 5762 5758 5756 5753 5751 5750
5896 5896 5895 5893 5891 5888 5886 5882 5879 5876 5873 5870 5868 5865 5863 5859 5856 5853 5849 5845 5841 5837 5832 5828 5824 5819 5815 5810 5805 5801 5796 5791 5787 5782 5778 5773 5769 5765 5761 5758 5755 5752 5749 5747
5895 5895 5895 5893 5891 5889 5886 5883 5879 5877 5874 5871 5869 5868 5864 5861 5857 5853 5850 5846 5842 5838 5834 5829 5825 5820 5816 5811 5807 5802 5797 5793 5788 5783 5778 5774 5770 5766 5761 5758 5754 5751 5748 5746
5895 5895 5894 5894 5892 5889 5886 5883 5881 5878 5875 5872 5870 5871 5865 5861 5858 5854 5851 5847 5843 5839 5835 5831 5826 5822 5817 5813 5808 5804 5799 5794 5789 5784 5779 5775 5771 5766 5762 5758 5754 5751 5748 5746
5895 5896 5895 5894 5894 5890 5886 5884 5881 5879 5876 5873 5871 5872 5865 5862 5859 5855 5852 5848 5844 5841 5837 5832 5828 5823 5819 5815 5810 5805 5801 5796 5791 5786 5781 5776 5772 5767 5763 5759 5755 5752 5749 5746
5895 5895 5895 5895 5892 5889 5887 5885 5882 5880 5877 5874 5872 5870 5866 5863 5860 5857 5853 5850 5846 5842 5838 5834 5830 5825 5821 5816 5812 5807 5802 5797 5793 5788 5783 5778 5773 5769 5764 5760 5756 5753 5749 5746
5895 5895 5894 5893 5892 5890 5888 5886 5883 5881 5878 5876 5873 5870 5867 5864 5861 5858 5854 5851 5847 5844 5840 5836 5831 5827 5823 5818 5814 5809 5804 5799 5794 5790 5785 5780 5775 5770 5766 5761 5757 5753 5750 5746
5895 5895 5894 5894 5892 5890 5888 5886 5884 5881 5879 5876 5873 5871 5868 5865 5862 5859 5855 5852 5849 5845 5841 5837 5833 5829 5825 5820 5816 5811 5806 5801 5796 5792 5786 5781 5777 5772 5767 5763 5758 5754 5750 5746
5895 5894 5894 5893 5892 5890 5889 5887 5884 5882 5879 5877 5874 5872 5868 5865 5862 5859 5856 5853 5850 5846 5843 5838 5835 5831 5827 5822 5818 5813 5808 5804 5799 5793 5788 5783 5778 5773 5768 5764 5759 5755 5750 5745
5894 5894 5893 5893 5893 5891 5891 5887 5884 5882 5880 5877 5874 5872 5869 5866 5863 5859 5856 5854 5850 5847 5844 5840 5836 5832 5828 5824 5820 5816 5811 5806 5801 5796 5790 5785 5780 5775 5770 5765 5760 5755 5750 5745
5893 5893 5892 5892 5890 5889 5889 5886 5884 5881 5879 5877 5874 5872 5869 5866 5863 5860 5857 5854 5851 5848 5845 5841 5837 5833 5830 5826 5822 5817 5813 5808 5803 5798 5793 5787 5782 5777 5771 5766 5761 5756 5751 5746
5891 5891 5891 5890 5889 5888 5888 5885 5883 5882 5879 5876 5874 5872 5869 5866 5863 5861 5857 5854 5851 5848 5845 5842 5838 5835 5831 5827 5823 5819 5815 5810 5806 5800 5795 5790 5784 5779 5773 5768 5763 5758 5752 5747
5888 5888 5887 5887 5886 5885 5885 5883 5882 5881 5879 5876 5873 5871 5869 5866 5863 5861 5857 5854 5851 5848 5845 5842 5839 5835 5832 5828 5824 5820 5816 5812 5807 5803 5798 5792 5787 5781 5776 5770 5765 5759 5754 5748
5884 5884 5884 5883 5882 5884 5881 5880 5880 5878 5876 5874 5872 5870 5868 5865 5863 5860 5857 5854 5851 5849 5845 5842 5839 5836 5832 5829 5825 5821 5817 5813 5809 5804 5800 5795 5790 5784 5779 5773 5767 5762 5756 5751
5880 5880 5879 5880 5880 5879 5877 5876 5875 5874 5873 5871 5869 5868 5866 5864 5861 5859 5856 5853 5851 5848 5845 5842 5838 5835 5832 5829 5826 5822 5818 5814 5810 5806 5801 5797 5792 5787 5782 5776 5770 5765 5759 5753
5875 5875 5875 5874 5874 5874 5873 5871 5870 5869 5868 5867 5866 5864 5863 5861 5859 5857 5854 5852 5849 5846 5843 5841 5838 5835 5832 5828 5825 5822 5819 5815 5811 5807 5803 5799 5794 5789 5784 5779 5774 5768 5762 5757
5869 5869 5869 5869 5869 5869 5868 5867 5865 5864 5863 5862 5861 5859 5858 5857 5855 5853 5851 5849 5846 5844 5841 5839 5836 5833 5831 5827 5824 5821 5818 5815 5811 5808 5804 5800 5796 5791 5787 5782 5777 5771 5766 5761
5862 5864 5865 5865 5864 5863 5863 5862 5861 5859 5858 5856 5855 5854 5852 5851 5850 5848 5846 5844 5842 5840 5838 5836 5834 5831 5829 5826 5823 5820 5817 5814 5811 5807 5804 5800 5797 5793 5789 5784 5780 5775 5770 5764